******** Week 361 almanac for PRN-1 ******** ID: 1 Health: 0 Eccentricity: 0.0016040802 Time of Applicability(s): 147456 Orbital Inclination(rad): 0.958195107 Rate of Right Ascen(r/s): -8.057478483e-09 SQRT(A) (m 1/2): 5153.573242 Right Ascen at Week(rad): 3.012169767 Argument of Perigee(rad): 0.09934473042 Mean Anom(rad): 0.8864513952 Af0(s): 0.0002532345703 Af1(s/s): -7.275958e-12 week: 361 ******** Week 361 almanac for PRN-2 ******** ID: 2 Health: 0 Eccentricity: 0.01688957214 Time of Applicability(s): 147456 Orbital Inclination(rad): 0.963414237 Rate of Right Ascen(r/s): -7.966046103e-09 SQRT(A) (m 1/2): 5153.541016 Right Ascen at Week(rad): 2.849730714 Argument of Perigee(rad): -0.8080228823 Mean Anom(rad): 2.36059757 Af0(s): 4.295943603e-05 Af1(s/s): 7.275958e-12 week: 361 ******** Week 361 almanac for PRN-3 ******** ID: 3 Health: 0 Eccentricity: 0.00651216507 Time of Applicability(s): 147456 Orbital Inclination(rad): 0.9934107519 Rate of Right Ascen(r/s): -7.508884204e-09 SQRT(A) (m 1/2): 5153.584473 Right Ascen at Week(rad): -2.284070055 Argument of Perigee(rad): 1.202682134 Mean Anom(rad): -1.231874957 Af0(s): 0.000431101709 Af1(s/s): -1.091394e-11 week: 361 ******** Week 361 almanac for PRN-4 ******** ID: 4 Health: 0 Eccentricity: 0.003734111786 Time of Applicability(s): 147456 Orbital Inclination(rad): 0.9704549691 Rate of Right Ascen(r/s): -7.760323248e-09 SQRT(A) (m 1/2): 5153.678223 Right Ascen at Week(rad): -1.213422621 Argument of Perigee(rad): -2.876117356 Mean Anom(rad): 1.743792734 Af0(s): 3.768371582e-05 Af1(s/s): 3.637979e-12 week: 361 ******** Week 361 almanac for PRN-5 ******** ID: 5 Health: 0 Eccentricity: 0.005406856537 Time of Applicability(s): 147456 Orbital Inclination(rad): 0.9799764358 Rate of Right Ascen(r/s): -7.668890868e-09 SQRT(A) (m 1/2): 5153.666016 Right Ascen at Week(rad): -2.343897927 Argument of Perigee(rad): 1.417261179 Mean Anom(rad): 2.410766157 Af0(s): -0.0001816355103 Af1(s/s): 0 week: 361 ******** Week 361 almanac for PRN-6 ******** ID: 6 Health: 0 Eccentricity: 0.00385093689 Time of Applicability(s): 147456 Orbital Inclination(rad): 0.9870710969 Rate of Right Ascen(r/s): -7.783181343e-09 SQRT(A) (m 1/2): 5153.595215 Right Ascen at Week(rad): 2.962906363 Argument of Perigee(rad): -0.5598726527 Mean Anom(rad): 0.08113956926 Af0(s): -0.0004838589111 Af1(s/s): 0 week: 361 ******** Week 361 almanac for PRN-7 ******** ID: 7 Health: 0 Eccentricity: 0.0205206871 Time of Applicability(s): 147456 Orbital Inclination(rad): 0.9512802093 Rate of Right Ascen(r/s): -7.897471818e-09 SQRT(A) (m 1/2): 5153.562988 Right Ascen at Week(rad): -0.2047381239 Argument of Perigee(rad): -1.990033352 Mean Anom(rad): -0.7777155265 Af0(s): -0.0001251099365 Af1(s/s): -3.637979e-12 week: 361 ******** Week 361 almanac for PRN-8 ******** ID: 8 Health: 0 Eccentricity: 0.01158428192 Time of Applicability(s): 147456 Orbital Inclination(rad): 0.9431608969 Rate of Right Ascen(r/s): -8.126052768e-09 SQRT(A) (m 1/2): 5153.636719 Right Ascen at Week(rad): 1.842333023 Argument of Perigee(rad): 0.5254891625 Mean Anom(rad): 2.048114898 Af0(s): 0.0003798518555 Af1(s/s): -7.275958e-12 week: 361 ******** Week 361 almanac for PRN-9 ******** ID: 9 Health: 0 Eccentricity: 0.003346920013 Time of Applicability(s): 147456 Orbital Inclination(rad): 0.9646126595 Rate of Right Ascen(r/s): -7.840326581e-09 SQRT(A) (m 1/2): 5153.721191 Right Ascen at Week(rad): -1.277733342 Argument of Perigee(rad): 2.068420669 Mean Anom(rad): 2.638419992 Af0(s): 0.0006067078247 Af1(s/s): 0 week: 361 ******** Week 361 almanac for PRN-10 ******** ID: 10 Health: 0 Eccentricity: 0.01094055176 Time of Applicability(s): 147456 Orbital Inclination(rad): 0.9929493593 Rate of Right Ascen(r/s): -7.520313251e-09 SQRT(A) (m 1/2): 5153.610352 Right Ascen at Week(rad): -2.286579252 Argument of Perigee(rad): -2.255843086 Mean Anom(rad): -2.222861001 Af0(s): -0.0004665244019 Af1(s/s): 0 week: 361 ******** Week 361 almanac for PRN-11 ******** ID: 11 Health: 0 Eccentricity: 0.002201080322 Time of Applicability(s): 147456 Orbital Inclination(rad): 0.9639355508 Rate of Right Ascen(r/s): -8.000333246e-09 SQRT(A) (m 1/2): 5153.52832 Right Ascen at Week(rad): 2.981540335 Argument of Perigee(rad): -2.304030531 Mean Anom(rad): 1.176777108 Af0(s): -0.000326340979 Af1(s/s): 1.455192e-11 week: 361 ******** Week 361 almanac for PRN-12 ******** ID: 12 Health: 0 Eccentricity: 0.009009838104 Time of Applicability(s): 147456 Orbital Inclination(rad): 0.9591418608 Rate of Right Ascen(r/s): -7.737465153e-09 SQRT(A) (m 1/2): 5153.72168 Right Ascen at Week(rad): 0.9127901 Argument of Perigee(rad): 1.561620905 Mean Anom(rad): -1.44329878 Af0(s): -0.0004800905395 Af1(s/s): 0 week: 361 ******** Week 361 almanac for PRN-13 ******** ID: 13 Health: 0 Eccentricity: 0.01000738144 Time of Applicability(s): 147456 Orbital Inclination(rad): 0.9761055312 Rate of Right Ascen(r/s): -7.726036106e-09 SQRT(A) (m 1/2): 5153.619629 Right Ascen at Week(rad): -1.102488396 Argument of Perigee(rad): 0.9959621189 Mean Anom(rad): 1.803064837 Af0(s): 0.0005403844849 Af1(s/s): 0 week: 361 ******** Week 361 almanac for PRN-14 ******** ID: 14 Health: 0 Eccentricity: 0.006751060486 Time of Applicability(s): 147456 Orbital Inclination(rad): 0.9425077566 Rate of Right Ascen(r/s): -7.886042771e-09 SQRT(A) (m 1/2): 5153.601562 Right Ascen at Week(rad): 0.8580394195 Argument of Perigee(rad): -2.746890709 Mean Anom(rad): -1.597574329 Af0(s): 0.0005833439209 Af1(s/s): 3.637979e-12 week: 361 ******** Week 361 almanac for PRN-15 ******** ID: 15 Health: 0 Eccentricity: 0.01660680771 Time of Applicability(s): 147456 Orbital Inclination(rad): 0.9424897803 Rate of Right Ascen(r/s): -8.034620388e-09 SQRT(A) (m 1/2): 5153.641602 Right Ascen at Week(rad): -1.421997569 Argument of Perigee(rad): 1.503001193 Mean Anom(rad): 1.050747254 Af0(s): 0.0003105138184 Af1(s/s): 3.637979e-12 week: 361 ******** Week 361 almanac for PRN-16 ******** ID: 16 Health: 0 Eccentricity: 0.01504278183 Time of Applicability(s): 147456 Orbital Inclination(rad): 0.9582610203 Rate of Right Ascen(r/s): -7.748894201e-09 SQRT(A) (m 1/2): 5153.602539 Right Ascen at Week(rad): 0.9297552684 Argument of Perigee(rad): 0.9299046967 Mean Anom(rad): 3.077498773 Af0(s): 0.0001756061157 Af1(s/s): 7.275958e-12 week: 361 ******** Week 361 almanac for PRN-17 ******** ID: 17 Health: 0 Eccentricity: 0.01265859604 Time of Applicability(s): 147456 Orbital Inclination(rad): 0.9588602315 Rate of Right Ascen(r/s): -8.011762293e-09 SQRT(A) (m 1/2): 5153.54541 Right Ascen at Week(rad): 1.947181509 Argument of Perigee(rad): -1.120115318 Mean Anom(rad): 1.981606195 Af0(s): -6.556966553e-05 Af1(s/s): -1.091394e-11 week: 361 ******** Week 361 almanac for PRN-18 ******** ID: 18 Health: 0 Eccentricity: 0.005753993988 Time of Applicability(s): 147456 Orbital Inclination(rad): 0.9720189105 Rate of Right Ascen(r/s): -7.931758961e-09 SQRT(A) (m 1/2): 5153.589355 Right Ascen at Week(rad): 2.957777115 Argument of Perigee(rad): -2.866219509 Mean Anom(rad): -0.0024777385 Af0(s): -0.0003210652588 Af1(s/s): 1.091394e-11 week: 361 ******** Week 361 almanac for PRN-19 ******** ID: 19 Health: 0 Eccentricity: 0.01114606857 Time of Applicability(s): 147456 Orbital Inclination(rad): 0.9580453042 Rate of Right Ascen(r/s): -8.011762293e-09 SQRT(A) (m 1/2): 5153.670898 Right Ascen at Week(rad): 1.991081223 Argument of Perigee(rad): 2.933870459 Mean Anom(rad): -2.492578716 Af0(s): 0.000547921228 Af1(s/s): 0 week: 361 ******** Week 361 almanac for PRN-20 ******** ID: 20 Health: 255 Eccentricity: 0.002276420593 Time of Applicability(s): 147456 Orbital Inclination(rad): 0.9600227013 Rate of Right Ascen(r/s): -7.863184676e-09 SQRT(A) (m 1/2): 5153.701172 Right Ascen at Week(rad): -1.272152064 Argument of Perigee(rad): -2.005578015 Mean Anom(rad): -1.454623124 Af0(s): 3.316166992e-05 Af1(s/s): 2.182787e-11 week: 361 ******** Week 361 almanac for PRN-21 ******** ID: 21 Health: 0 Eccentricity: 0.0007543563843 Time of Applicability(s): 147456 Orbital Inclination(rad): 0.9628150257 Rate of Right Ascen(r/s): -7.828897533e-09 SQRT(A) (m 1/2): 5153.72168 Right Ascen at Week(rad): -2.27803038 Argument of Perigee(rad): -0.3185197257 Mean Anom(rad): -1.74324071 Af0(s): 0.0003218189331 Af1(s/s): 3.637979e-12 week: 361 ******** Week 361 almanac for PRN-22 ******** ID: 22 Health: 0 Eccentricity: 0.01208400726 Time of Applicability(s): 147456 Orbital Inclination(rad): 0.9577037538 Rate of Right Ascen(r/s): -7.737465153e-09 SQRT(A) (m 1/2): 5153.576172 Right Ascen at Week(rad): 0.9331078553 Argument of Perigee(rad): -0.9931611809 Mean Anom(rad): 2.629385759 Af0(s): -2.863962402e-05 Af1(s/s): 3.637979e-12 week: 361 ******** Week 361 almanac for PRN-23 ******** ID: 23 Health: 0 Eccentricity: 0.006044387817 Time of Applicability(s): 147456 Orbital Inclination(rad): 0.9879459454 Rate of Right Ascen(r/s): -7.566029441e-09 SQRT(A) (m 1/2): 5153.664551 Right Ascen at Week(rad): -2.318695851 Argument of Perigee(rad): -2.738710727 Mean Anom(rad): -1.141587304 Af0(s): 0.0004913956543 Af1(s/s): 3.637979e-12 week: 361 ******** Week 361 almanac for PRN-24 ******** ID: 24 Health: 0 Eccentricity: 0.01792001724 Time of Applicability(s): 147456 Orbital Inclination(rad): 0.9352453163 Rate of Right Ascen(r/s): -8.091765626e-09 SQRT(A) (m 1/2): 5153.586914 Right Ascen at Week(rad): -0.3133294328 Argument of Perigee(rad): 1.136356565 Mean Anom(rad): 0.2040565211 Af0(s): -7.084538574e-05 Af1(s/s): 1.818989e-11 week: 361 ******** Week 361 almanac for PRN-25 ******** ID: 25 Health: 0 Eccentricity: 0.0129327774 Time of Applicability(s): 147456 Orbital Inclination(rad): 0.9475591074 Rate of Right Ascen(r/s): -7.851755628e-09 SQRT(A) (m 1/2): 5153.669922 Right Ascen at Week(rad): 0.8188858332 Argument of Perigee(rad): 1.15764654 Mean Anom(rad): -1.574568737 Af0(s): 0.0003466901855 Af1(s/s): -3.637979e-12 week: 361 ******** Week 361 almanac for PRN-26 ******** ID: 26 Health: 0 Eccentricity: 0.01101255417 Time of Applicability(s): 147456 Orbital Inclination(rad): 0.9283783555 Rate of Right Ascen(r/s): -8.023191341e-09 SQRT(A) (m 1/2): 5153.665039 Right Ascen at Week(rad): 0.74422561 Argument of Perigee(rad): 0.7099447347 Mean Anom(rad): -2.395129365 Af0(s): -0.000266800708 Af1(s/s): -3.637979e-12 week: 361 ******** Week 361 almanac for PRN-27 ******** ID: 27 Health: 0 Eccentricity: 0.01436758041 Time of Applicability(s): 147456 Orbital Inclination(rad): 0.9522689078 Rate of Right Ascen(r/s): -8.057478483e-09 SQRT(A) (m 1/2): 5153.615723 Right Ascen at Week(rad): 1.874434267 Argument of Perigee(rad): 0.8828130594 Mean Anom(rad): 2.14982876 Af0(s): -4.974250488e-05 Af1(s/s): -1.091394e-11 week: 361 ******** Week 361 almanac for PRN-28 ******** ID: 28 Health: 0 Eccentricity: 0.0004229545593 Time of Applicability(s): 147456 Orbital Inclination(rad): 0.9622098224 Rate of Right Ascen(r/s): -7.794610391e-09 SQRT(A) (m 1/2): 5153.743164 Right Ascen at Week(rad): -0.2303978474 Argument of Perigee(rad): -0.02063046868 Mean Anom(rad): -0.4311006581 Af0(s): -0.000459741333 Af1(s/s): 7.275958e-12 week: 361 ******** Week 361 almanac for PRN-29 ******** ID: 29 Health: 0 Eccentricity: 0.003378868103 Time of Applicability(s): 147456 Orbital Inclination(rad): 0.9615207295 Rate of Right Ascen(r/s): -7.977475151e-09 SQRT(A) (m 1/2): 5153.706543 Right Ascen at Week(rad): 1.963929088 Argument of Perigee(rad): 2.740913203 Mean Anom(rad): 2.011919168 Af0(s): -0.0002863962402 Af1(s/s): 7.275958e-12 week: 361 ******** Week 361 almanac for PRN-30 ******** ID: 30 Health: 0 Eccentricity: 0.008082866669 Time of Applicability(s): 147456 Orbital Inclination(rad): 0.9365396126 Rate of Right Ascen(r/s): -8.068907531e-09 SQRT(A) (m 1/2): 5153.694336 Right Ascen at Week(rad): -0.2138334016 Argument of Perigee(rad): -2.314872135 Mean Anom(rad): -0.9543266745 Af0(s): 0.0001160658447 Af1(s/s): 1.455192e-11 week: 361 ******** Week 361 almanac for PRN-31 ******** ID: 31 Health: 0 Eccentricity: 0.01085758209 Time of Applicability(s): 147456 Orbital Inclination(rad): 0.9550432559 Rate of Right Ascen(r/s): -7.851755628e-09 SQRT(A) (m 1/2): 5153.515625 Right Ascen at Week(rad): -0.1804962839 Argument of Perigee(rad): 0.9367188521 Mean Anom(rad): -1.872192468 Af0(s): -0.0001281246338 Af1(s/s): 3.637979e-12 week: 361 ******** Week 361 almanac for PRN-32 ******** ID: 32 Health: 0 Eccentricity: 0.009364128113 Time of Applicability(s): 147456 Orbital Inclination(rad): 0.9676566526 Rate of Right Ascen(r/s): -7.794610391e-09 SQRT(A) (m 1/2): 5153.682617 Right Ascen at Week(rad): -1.260701886 Argument of Perigee(rad): -1.996164032 Mean Anom(rad): 2.722292713 Af0(s): -4.522045898e-05 Af1(s/s): 1.818989e-11 week: 361